owner,sensor,date,latitude,longitude,vertical_datum,direction_of_sea_water_velocity,sea_water_speed,upward_sea_water_velocity,qcFlag 
TABS,ioos:station:wmo:42051:1,2002-05-01T00:00:00Z,29.6350,-93.6417,2.0,100.0537859,30.41707744,-99999.0,'11111222,11111222,99999999' 
TABS,ioos:station:wmo:42051:1,2002-05-01T00:30:00Z,29.6350,-93.6417,2.0,99.9731492,33.37432097,-99999.0,'11111222,11111222,99999999' 
TABS,ioos:station:wmo:42051:1,2002-05-01T01:00:00Z,29.6350,-93.6417,2.0,104.3401635,31.08865388,-99999.0,'11111222,11111222,99999999' 
TABS,ioos:station:wmo:42051:1,2002-05-01T01:30:00Z,29.6350,-93.6417,2.0,101.5121035,30.56488999,-99999.0,'11111222,11111222,99999999' 
TABS,ioos:station:wmo:42051:1,2002-05-01T02:00:00Z,29.6350,-93.6417,2.0,99.56822524,28.45586934,-99999.0,'11111222,11111222,99999999' 
TABS,ioos:station:wmo:42051:1,2002-05-01T02:30:00Z,29.6350,-93.6417,2.0,96.94614011,30.59455671,-99999.0,'11111222,11111222,99999999' 
TABS,ioos:station:wmo:42051:1,2002-05-01T03:00:00Z,29.6350,-93.6417,2.0,99.0004258,25.69639663,-99999.0,'11111222,11111222,99999999' 
TABS,ioos:station:wmo:42051:1,2002-05-01T03:30:00Z,29.6350,-93.6417,2.0,86.54202705,25.36618418,-99999.0,'11111222,11111222,99999999' 
TABS,ioos:station:wmo:42051:1,2002-05-01T04:00:00Z,29.6350,-93.6417,2.0,76.48664577,25.24900988,-99999.0,'11111222,11111222,99999999' 
TABS,ioos:station:wmo:42051:1,2002-05-01T04:30:00Z,29.6350,-93.6417,2.0,69.70247769,27.24160421,-99999.0,'11111222,11111222,99999999' 
TABS,ioos:station:wmo:42051:1,2002-05-01T05:00:00Z,29.6350,-93.6417,2.0,65.77132323,26.43888424,-99999.0,'11111222,11111222,99999999' 
TABS,ioos:station:wmo:42051:1,2002-05-01T05:30:00Z,29.6350,-93.6417,2.0,59.00207682,28.69857836,-99999.0,'11111222,11111222,99999999' 
TABS,ioos:station:wmo:42051:1,2002-05-01T06:00:00Z,29.6350,-93.6417,2.0,58.23544441,31.53309531,-99999.0,'11111222,11111222,99999999' 
TABS,ioos:station:wmo:42051:1,2002-05-01T06:30:00Z,29.6350,-93.6417,2.0,56.57832964,34.35018632,-99999.0,'11111222,11111222,99999999' 
TABS,ioos:station:wmo:42051:1,2002-05-01T07:00:00Z,29.6350,-93.6417,2.0,52.31508119,35.70961355,-99999.0,'11111222,11111222,99999999' 
TABS,ioos:station:wmo:42051:1,2002-05-01T07:30:00Z,29.6350,-93.6417,2.0,53.3493728,37.64227544,-99999.0,'11111222,11111222,99999999' 
TABS,ioos:station:wmo:42051:1,2002-05-01T08:00:00Z,29.6350,-93.6417,2.0,52.60053136,41.53977492,-99999.0,'11111222,11111222,99999999' 
TABS,ioos:station:wmo:42051:1,2002-05-01T08:30:00Z,29.6350,-93.6417,2.0,48.26630424,43.18952882,-99999.0,'11111222,11111222,99999999' 
TABS,ioos:station:wmo:42051:1,2002-05-01T09:00:00Z,29.6350,-93.6417,2.0,47.84065661,47.22912343,-99999.0,'11111222,11111222,99999999' 
TABS,ioos:station:wmo:42051:1,2002-05-01T09:30:00Z,29.6350,-93.6417,2.0,45.67878933,47.16025975,-99999.0,'11111222,11111222,99999999' 
TABS,ioos:station:wmo:42051:1,2002-05-01T10:00:00Z,29.6350,-93.6417,2.0,49.71991475,46.83493675,-99999.0,'11111222,11111222,99999999' 
TABS,ioos:station:wmo:42051:1,2002-05-01T10:30:00Z,29.6350,-93.6417,2.0,44.73698127,49.27172008,-99999.0,'11111222,11111222,99999999' 
TABS,ioos:station:wmo:42051:1,2002-05-01T11:00:00Z,29.6350,-93.6417,2.0,46.40096423,48.30275872,-99999.0,'11111222,11111222,99999999' 
TABS,ioos:station:wmo:42051:1,2002-05-01T11:30:00Z,29.6350,-93.6417,2.0,43.90889156,49.01138847,-99999.0,'11111222,11111222,99999999' 
TABS,ioos:station:wmo:42051:1,2002-05-01T12:00:00Z,29.6350,-93.6417,2.0,45.5037051,52.29256639,-99999.0,'11111222,11111222,99999999' 
TABS,ioos:station:wmo:42051:1,2002-05-01T12:30:00Z,29.6350,-93.6417,2.0,52.01579903,54.70834763,-99999.0,'11111222,11111222,99999999' 
TABS,ioos:station:wmo:42051:1,2002-05-01T13:00:00Z,29.6350,-93.6417,2.0,59.17136396,53.11497435,-99999.0,'11111222,11111222,99999999' 
TABS,ioos:station:wmo:42051:1,2002-05-01T13:30:00Z,29.6350,-93.6417,2.0,64.6636836,50.05471007,-99999.0,'11111222,11111222,99999999' 
TABS,ioos:station:wmo:42051:1,2002-05-01T14:00:00Z,29.6350,-93.6417,2.0,58.64737361,52.29626851,-99999.0,'11111222,11111222,99999999' 
TABS,ioos:station:wmo:42051:1,2002-05-01T14:30:00Z,29.6350,-93.6417,2.0,64.67911209,48.61016046,-99999.0,'11111222,11111222,99999999' 
TABS,ioos:station:wmo:42051:1,2002-05-01T15:00:00Z,29.6350,-93.6417,2.0,69.53592023,51.79896717,-99999.0,'11111222,11111222,99999999' 
TABS,ioos:station:wmo:42051:1,2002-05-01T15:30:00Z,29.6350,-93.6417,2.0,76.31458509,54.27078864,-99999.0,'11111222,11111222,99999999' 
TABS,ioos:station:wmo:42051:1,2002-05-01T16:00:00Z,29.6350,-93.6417,2.0,74.23109894,51.73710177,-99999.0,'11111222,11111222,99999999' 
TABS,ioos:station:wmo:42051:1,2002-05-01T16:30:00Z,29.6350,-93.6417,2.0,78.2344592,51.54291125,-99999.0,'11111222,11111222,99999999' 
TABS,ioos:station:wmo:42051:1,2002-05-01T17:00:00Z,29.6350,-93.6417,2.0,88.68580873,43.60146901,-99999.0,'11111222,11111222,99999999' 
TABS,ioos:station:wmo:42051:1,2002-05-01T17:30:00Z,29.6350,-93.6417,2.0,86.39101656,39.39813194,-99999.0,'11111222,11111222,99999999' 
TABS,ioos:station:wmo:42051:1,2002-05-01T18:00:00Z,29.6350,-93.6417,2.0,90.60950515,35.72202122,-99999.0,'11111222,11111222,99999999' 
TABS,ioos:station:wmo:42051:1,2002-05-01T18:30:00Z,29.6350,-93.6417,2.0,85.9347904,32.02056371,-99999.0,'11111222,11111222,99999999' 
TABS,ioos:station:wmo:42051:1,2002-05-01T19:00:00Z,29.6350,-93.6417,2.0,81.63048415,36.54925444,-99999.0,'11111222,11111222,99999999' 
TABS,ioos:station:wmo:42051:1,2002-05-01T19:30:00Z,29.6350,-93.6417,2.0,92.5625241,34.44444367,-99999.0,'11111222,11111222,99999999' 
TABS,ioos:station:wmo:42051:1,2002-05-01T20:00:00Z,29.6350,-93.6417,2.0,92.66659015,33.3160757,-99999.0,'11111222,11111222,99999999' 
TABS,ioos:station:wmo:42051:1,2002-05-01T20:30:00Z,29.6350,-93.6417,2.0,100.1000968,29.53775211,-99999.0,'11111222,11111222,99999999' 
TABS,ioos:station:wmo:42051:1,2002-05-01T21:00:00Z,29.6350,-93.6417,2.0,93.05164472,30.99395102,-99999.0,'11111222,11111222,99999999' 
TABS,ioos:station:wmo:42051:1,2002-05-01T21:30:00Z,29.6350,-93.6417,2.0,88.87591294,28.54549351,-99999.0,'11111222,11111222,99999999' 
TABS,ioos:station:wmo:42051:1,2002-05-01T22:00:00Z,29.6350,-93.6417,2.0,80.76738725,28.29658107,-99999.0,'11111222,11111222,99999999' 
TABS,ioos:station:wmo:42051:1,2002-05-01T22:30:00Z,29.6350,-93.6417,2.0,90.92539985,27.24355337,-99999.0,'11111222,11111222,99999999' 
TABS,ioos:station:wmo:42051:1,2002-05-01T23:00:00Z,29.6350,-93.6417,2.0,83.46726825,21.35868208,-99999.0,'11111222,11111222,99999999' 
TABS,ioos:station:wmo:42051:1,2002-05-01T23:30:00Z,29.6350,-93.6417,2.0,83.11017866,19.33965874,-99999.0,'11111222,11111222,99999999' 
TABS,ioos:station:wmo:42051:1,2002-05-02T00:00:00Z,29.6350,-93.6417,2.0,70.65631691,19.14051201,-99999.0,'11111222,11111222,99999999' 
TABS,ioos:station:wmo:42051:1,2002-05-02T00:30:00Z,29.6350,-93.6417,2.0,54.18813856,15.05656667,-99999.0,'11111222,11111222,99999999' 
TABS,ioos:station:wmo:42051:1,2002-05-02T01:00:00Z,29.6350,-93.6417,2.0,39.71554436,16.27606832,-99999.0,'11111222,11111222,99999999' 
TABS,ioos:station:wmo:42051:1,2002-05-02T01:30:00Z,29.6350,-93.6417,2.0,29.50009954,17.11943048,-99999.0,'11111222,11111222,99999999' 
TABS,ioos:station:wmo:42051:1,2002-05-02T02:00:00Z,29.6350,-93.6417,2.0,24.5524429,21.00964064,-99999.0,'11111222,11111222,99999999' 
TABS,ioos:station:wmo:42051:1,2002-05-02T02:30:00Z,29.6350,-93.6417,2.0,25.50333129,19.78812775,-99999.0,'11111222,11111222,99999999' 
TABS,ioos:station:wmo:42051:1,2002-05-02T03:00:00Z,29.6350,-93.6417,2.0,19.16871801,20.25288621,-99999.0,'11111222,11111222,99999999' 
TABS,ioos:station:wmo:42051:1,2002-05-02T03:30:00Z,29.6350,-93.6417,2.0,23.03645494,23.17830451,-99999.0,'11111222,11111222,99999999' 
TABS,ioos:station:wmo:42051:1,2002-05-02T04:00:00Z,29.6350,-93.6417,2.0,33.16683308,21.86164678,-99999.0,'11111222,11111222,99999999' 
TABS,ioos:station:wmo:42051:1,2002-05-02T04:30:00Z,29.6350,-93.6417,2.0,39.75707105,24.14264277,-99999.0,'11111222,11111222,99999999' 
TABS,ioos:station:wmo:42051:1,2002-05-02T05:00:00Z,29.6350,-93.6417,2.0,46.88652585,30.2876559,-99999.0,'11111222,11111222,99999999' 
TABS,ioos:station:wmo:42051:1,2002-05-02T05:30:00Z,29.6350,-93.6417,2.0,56.09874862,33.09641219,-99999.0,'11111222,11111222,99999999' 
TABS,ioos:station:wmo:42051:1,2002-05-02T06:00:00Z,29.6350,-93.6417,2.0,54.9310781,37.80267186,-99999.0,'11111222,11111222,99999999' 
TABS,ioos:station:wmo:42051:1,2002-05-02T06:30:00Z,29.6350,-93.6417,2.0,58.44623936,38.46745768,-99999.0,'11111222,11111222,99999999' 
TABS,ioos:station:wmo:42051:1,2002-05-02T07:00:00Z,29.6350,-93.6417,2.0,59.7536358,41.23320628,-99999.0,'11111222,11111222,99999999' 
TABS,ioos:station:wmo:42051:1,2002-05-02T07:30:00Z,29.6350,-93.6417,2.0,62.57379139,44.33281967,-99999.0,'11111222,11111222,99999999' 
TABS,ioos:station:wmo:42051:1,2002-05-02T08:00:00Z,29.6350,-93.6417,2.0,54.02984893,48.65799831,-99999.0,'11111222,11111222,99999999' 
TABS,ioos:station:wmo:42051:1,2002-05-02T08:30:00Z,29.6350,-93.6417,2.0,52.85942395,48.24653874,-99999.0,'11111222,11111222,99999999' 
TABS,ioos:station:wmo:42051:1,2002-05-02T09:00:00Z,29.6350,-93.6417,2.0,52.93157069,49.04029466,-99999.0,'11111222,11111222,99999999' 
TABS,ioos:station:wmo:42051:1,2002-05-02T09:30:00Z,29.6350,-93.6417,2.0,50.05986331,42.49299707,-99999.0,'11111222,11111222,99999999' 
TABS,ioos:station:wmo:42051:1,2002-05-02T10:00:00Z,29.6350,-93.6417,2.0,54.40812915,46.63159873,-99999.0,'11111222,11111222,99999999' 
TABS,ioos:station:wmo:42051:1,2002-05-02T10:30:00Z,29.6350,-93.6417,2.0,52.61779998,42.93971705,-99999.0,'11111222,11111222,99999999' 
TABS,ioos:station:wmo:42051:1,2002-05-02T11:00:00Z,29.6350,-93.6417,2.0,49.49564936,39.78401815,-99999.0,'11111222,11111222,99999999' 
TABS,ioos:station:wmo:42051:1,2002-05-02T11:30:00Z,29.6350,-93.6417,2.0,53.06803049,40.55802387,-99999.0,'11111222,11111222,99999999' 
TABS,ioos:station:wmo:42051:1,2002-05-02T12:00:00Z,29.6350,-93.6417,2.0,53.17722932,41.41201396,-99999.0,'11111222,11111222,99999999' 
TABS,ioos:station:wmo:42051:1,2002-05-02T12:30:00Z,29.6350,-93.6417,2.0,49.17322806,46.83564882,-99999.0,'11111222,11111222,99999999' 
TABS,ioos:station:wmo:42051:1,2002-05-02T13:00:00Z,29.6350,-93.6417,2.0,58.52394657,41.99996786,-99999.0,'11111222,11111222,99999999' 
TABS,ioos:station:wmo:42051:1,2002-05-02T13:30:00Z,29.6350,-93.6417,2.0,66.27088866,37.15080887,-99999.0,'11111222,11111222,99999999' 
TABS,ioos:station:wmo:42051:1,2002-05-02T14:00:00Z,29.6350,-93.6417,2.0,75.0819374,33.2507218,-99999.0,'11111222,11111222,99999999' 
TABS,ioos:station:wmo:42051:1,2002-05-02T14:30:00Z,29.6350,-93.6417,2.0,78.13450082,33.1687202,-99999.0,'11111222,11111222,99999999' 
TABS,ioos:station:wmo:42051:1,2002-05-02T15:00:00Z,29.6350,-93.6417,2.0,80.35824147,35.16675987,-99999.0,'11111222,11111222,99999999' 
TABS,ioos:station:wmo:42051:1,2002-05-02T15:30:00Z,29.6350,-93.6417,2.0,78.74090026,24.32821613,-99999.0,'11111222,11111222,99999999' 
TABS,ioos:station:wmo:42051:1,2002-05-02T16:00:00Z,29.6350,-93.6417,2.0,65.74333551,22.53996673,-99999.0,'11111222,11111222,99999999' 
TABS,ioos:station:wmo:42051:1,2002-05-02T16:30:00Z,29.6350,-93.6417,2.0,70.23178997,23.23954604,-99999.0,'11111222,11111222,99999999' 
TABS,ioos:station:wmo:42051:1,2002-05-02T17:00:00Z,29.6350,-93.6417,2.0,71.01664254,23.45568801,-99999.0,'11111222,11111222,99999999' 
TABS,ioos:station:wmo:42051:1,2002-05-02T17:30:00Z,29.6350,-93.6417,2.0,76.68824784,16.11292959,-99999.0,'11111222,11111222,99999999' 
TABS,ioos:station:wmo:42051:1,2002-05-02T18:00:00Z,29.6350,-93.6417,2.0,80.77680043,13.78826312,-99999.0,'11111222,11111222,99999999' 
TABS,ioos:station:wmo:42051:1,2002-05-02T18:30:00Z,29.6350,-93.6417,2.0,82.9716202,13.23948639,-99999.0,'11111222,11111222,99999999' 
TABS,ioos:station:wmo:42051:1,2002-05-02T19:00:00Z,29.6350,-93.6417,2.0,92.54582569,12.38222113,-99999.0,'11111222,11111222,99999999' 
TABS,ioos:station:wmo:42051:1,2002-05-02T19:30:00Z,29.6350,-93.6417,2.0,88.96064295,13.78226759,-99999.0,'11111222,11111222,99999999' 
TABS,ioos:station:wmo:42051:1,2002-05-02T20:00:00Z,29.6350,-93.6417,2.0,76.61752234,15.94290438,-99999.0,'11111222,11111222,99999999' 
TABS,ioos:station:wmo:42051:1,2002-05-02T20:30:00Z,29.6350,-93.6417,2.0,83.5537287,13.71672337,-99999.0,'11111222,11111222,99999999' 
TABS,ioos:station:wmo:42051:1,2002-05-02T21:00:00Z,29.6350,-93.6417,2.0,49.78734692,15.67467065,-99999.0,'11111222,11111222,99999999' 
TABS,ioos:station:wmo:42051:1,2002-05-02T21:30:00Z,29.6350,-93.6417,2.0,49.95838421,22.98921704,-99999.0,'11111222,11111222,99999999' 
TABS,ioos:station:wmo:42051:1,2002-05-02T22:00:00Z,29.6350,-93.6417,2.0,52.56817503,18.14687301,-99999.0,'11111222,11111222,99999999' 
TABS,ioos:station:wmo:42051:1,2002-05-02T22:30:00Z,29.6350,-93.6417,2.0,54.7395284,17.30482592,-99999.0,'11111222,11111222,99999999' 
TABS,ioos:station:wmo:42051:1,2002-05-02T23:00:00Z,29.6350,-93.6417,2.0,57.80110132,16.62722166,-99999.0,'11111222,11111222,99999999' 
TABS,ioos:station:wmo:42051:1,2002-05-02T23:30:00Z,29.6350,-93.6417,2.0,71.28946373,15.11902444,-99999.0,'11111222,11111222,99999999' 
TABS,ioos:station:wmo:42051:1,2002-05-03T00:00:00Z,29.6350,-93.6417,2.0,77.88287114,10.71881057,-99999.0,'11111222,11111222,99999999' 
TABS,ioos:station:wmo:42051:1,2002-05-03T00:30:00Z,29.6350,-93.6417,2.0,66.62959294,9.630057113,-99999.0,'11133222,11111222,99999999' 
TABS,ioos:station:wmo:42051:1,2002-05-03T01:00:00Z,29.6350,-93.6417,2.0,38.31723293,9.66108172,-99999.0,'11133222,11111222,99999999' 
TABS,ioos:station:wmo:42051:1,2002-05-03T01:30:00Z,29.6350,-93.6417,2.0,35.08412311,10.71720579,-99999.0,'11111222,11111222,99999999' 
TABS,ioos:station:wmo:42051:1,2002-05-03T02:00:00Z,29.6350,-93.6417,2.0,19.12865226,10.71141914,-99999.0,'11111222,11111222,99999999' 
TABS,ioos:station:wmo:42051:1,2002-05-03T02:30:00Z,29.6350,-93.6417,2.0,16.68680934,8.706641143,-99999.0,'11133222,11111222,99999999' 
TABS,ioos:station:wmo:42051:1,2002-05-03T03:00:00Z,29.6350,-93.6417,2.0,3.288547493,7.322055722,-99999.0,'11133222,11111222,99999999' 
TABS,ioos:station:wmo:42051:1,2002-05-03T03:30:00Z,29.6350,-93.6417,2.0,22.84258277,6.336970885,-99999.0,'11133222,11111222,99999999' 
TABS,ioos:station:wmo:42051:1,2002-05-03T04:00:00Z,29.6350,-93.6417,2.0,14.06229405,10.74190393,-99999.0,'11111222,11111222,99999999' 
TABS,ioos:station:wmo:42051:1,2002-05-03T04:30:00Z,29.6350,-93.6417,2.0,23.40100907,8.183067884,-99999.0,'11133222,11111222,99999999' 
TABS,ioos:station:wmo:42051:1,2002-05-03T05:00:00Z,29.6350,-93.6417,2.0,31.08764309,10.32252392,-99999.0,'11111222,11111222,99999999' 
TABS,ioos:station:wmo:42051:1,2002-05-03T05:30:00Z,29.6350,-93.6417,2.0,37.28335059,9.426245276,-99999.0,'11133222,11111222,99999999' 
TABS,ioos:station:wmo:42051:1,2002-05-03T06:00:00Z,29.6350,-93.6417,2.0,47.88651702,8.42525964,-99999.0,'11133222,11111222,99999999' 
TABS,ioos:station:wmo:42051:1,2002-05-03T06:30:00Z,29.6350,-93.6417,2.0,54.31002363,9.616038685,-99999.0,'11133222,11111222,99999999' 
TABS,ioos:station:wmo:42051:1,2002-05-03T07:00:00Z,29.6350,-93.6417,2.0,49.97801203,12.87548057,-99999.0,'11111222,11111222,99999999' 
TABS,ioos:station:wmo:42051:1,2002-05-03T07:30:00Z,29.6350,-93.6417,2.0,40.81721195,9.791225664,-99999.0,'11133222,11111222,99999999' 
TABS,ioos:station:wmo:42051:1,2002-05-03T08:00:00Z,29.6350,-93.6417,2.0,42.4497578,8.104400039,-99999.0,'11133222,11111222,99999999' 
TABS,ioos:station:wmo:42051:1,2002-05-03T08:30:00Z,29.6350,-93.6417,2.0,27.19150529,9.409936238,-99999.0,'11133222,11111222,99999999' 
TABS,ioos:station:wmo:42051:1,2002-05-03T09:00:00Z,29.6350,-93.6417,2.0,22.89877226,7.273162998,-99999.0,'11133222,11111222,99999999' 
TABS,ioos:station:wmo:42051:1,2002-05-03T09:30:00Z,29.6350,-93.6417,2.0,7.361967664,3.902166065,-99999.0,'11133222,11111222,99999999' 
TABS,ioos:station:wmo:42051:1,2002-05-03T10:00:00Z,29.6350,-93.6417,2.0,343.0764869,6.355226196,-99999.0,'11133222,11111222,99999999' 
TABS,ioos:station:wmo:42051:1,2002-05-03T10:30:00Z,29.6350,-93.6417,2.0,355.8681599,7.910562559,-99999.0,'11133222,11111222,99999999' 
TABS,ioos:station:wmo:42051:1,2002-05-03T11:00:00Z,29.6350,-93.6417,2.0,323.0920614,5.978001338,-99999.0,'11133222,11111222,99999999' 
TABS,ioos:station:wmo:42051:1,2002-05-03T11:30:00Z,29.6350,-93.6417,2.0,301.9310284,7.317171585,-99999.0,'11133222,11111222,99999999' 
TABS,ioos:station:wmo:42051:1,2002-05-03T12:00:00Z,29.6350,-93.6417,2.0,285.0274952,10.7993009,-99999.0,'11111222,11111222,99999999' 
TABS,ioos:station:wmo:42051:1,2002-05-03T12:30:00Z,29.6350,-93.6417,2.0,275.7859623,9.12648892,-99999.0,'11133222,11111222,99999999' 
TABS,ioos:station:wmo:42051:1,2002-05-03T13:00:00Z,29.6350,-93.6417,2.0,295.5052277,13.05192706,-99999.0,'11111222,11111222,99999999' 
TABS,ioos:station:wmo:42051:1,2002-05-03T13:30:00Z,29.6350,-93.6417,2.0,288.2132516,11.42223271,-99999.0,'11111222,11111222,99999999' 
TABS,ioos:station:wmo:42051:1,2002-05-03T14:00:00Z,29.6350,-93.6417,2.0,280.0381971,11.13037286,-99999.0,'11111222,11111222,99999999' 
TABS,ioos:station:wmo:42051:1,2002-05-03T14:30:00Z,29.6350,-93.6417,2.0,285.2956738,7.505864374,-99999.0,'11133222,11111222,99999999' 
TABS,ioos:station:wmo:42051:1,2002-05-03T15:00:00Z,29.6350,-93.6417,2.0,286.5574536,3.08804145,-99999.0,'11133222,11111222,99999999' 
TABS,ioos:station:wmo:42051:1,2002-05-03T15:30:00Z,29.6350,-93.6417,2.0,242.4545113,2.876004172,-99999.0,'11133222,11111222,99999999' 
TABS,ioos:station:wmo:42051:1,2002-05-03T16:00:00Z,29.6350,-93.6417,2.0,271.355133,2.960827587,-99999.0,'11133222,11111222,99999999' 
TABS,ioos:station:wmo:42051:1,2002-05-03T16:30:00Z,29.6350,-93.6417,2.0,228.8326223,2.856028711,-99999.0,'11133222,11111222,99999999' 
TABS,ioos:station:wmo:42051:1,2002-05-03T17:00:00Z,29.6350,-93.6417,2.0,175.6674857,3.971347378,-99999.0,'11133222,11111222,99999999' 
TABS,ioos:station:wmo:42051:1,2002-05-03T17:30:00Z,29.6350,-93.6417,2.0,206.8194242,5.03120264,-99999.0,'11133222,11111222,99999999' 
TABS,ioos:station:wmo:42051:1,2002-05-03T18:00:00Z,29.6350,-93.6417,2.0,204.3680743,10.03390253,-99999.0,'11111222,11111222,99999999' 
TABS,ioos:station:wmo:42051:1,2002-05-03T18:30:00Z,29.6350,-93.6417,2.0,188.4659139,9.645102384,-99999.0,'11133222,11111222,99999999' 
TABS,ioos:station:wmo:42051:1,2002-05-03T19:00:00Z,29.6350,-93.6417,2.0,193.2581324,12.86284961,-99999.0,'11111222,11111222,99999999' 
TABS,ioos:station:wmo:42051:1,2002-05-03T19:30:00Z,29.6350,-93.6417,2.0,194.8102185,15.25688369,-99999.0,'11111222,11111222,99999999' 
TABS,ioos:station:wmo:42051:1,2002-05-03T20:00:00Z,29.6350,-93.6417,2.0,183.0032883,12.97782724,-99999.0,'11111222,11111222,99999999' 
TABS,ioos:station:wmo:42051:1,2002-05-03T20:30:00Z,29.6350,-93.6417,2.0,200.7267479,20.00476193,-99999.0,'11111222,11111222,99999999' 
TABS,ioos:station:wmo:42051:1,2002-05-03T21:00:00Z,29.6350,-93.6417,2.0,207.80855,17.51253837,-99999.0,'11111222,11111222,99999999' 
TABS,ioos:station:wmo:42051:1,2002-05-03T21:30:00Z,29.6350,-93.6417,2.0,201.3201388,15.70480818,-99999.0,'11111222,11111222,99999999' 
TABS,ioos:station:wmo:42051:1,2002-05-03T22:00:00Z,29.6350,-93.6417,2.0,208.5100619,13.70157655,-99999.0,'11111222,11111222,99999999' 
TABS,ioos:station:wmo:42051:1,2002-05-03T22:30:00Z,29.6350,-93.6417,2.0,203.411849,12.6842895,-99999.0,'11111222,11111222,99999999' 
TABS,ioos:station:wmo:42051:1,2002-05-03T23:00:00Z,29.6350,-93.6417,2.0,205.2111055,20.8236044,-99999.0,'11111222,11111222,99999999' 
TABS,ioos:station:wmo:42051:1,2002-05-03T23:30:00Z,29.6350,-93.6417,2.0,227.8459185,23.78105338,-99999.0,'11111222,11111222,99999999' 
TABS,ioos:station:wmo:42051:1,2002-05-04T00:00:00Z,29.6350,-93.6417,2.0,226.5600761,16.09972049,-99999.0,'11111222,11111222,99999999' 
TABS,ioos:station:wmo:42051:1,2002-05-04T00:30:00Z,29.6350,-93.6417,2.0,229.0246787,10.47687931,-99999.0,'11111222,11111222,99999999' 
TABS,ioos:station:wmo:42051:1,2002-05-04T01:00:00Z,29.6350,-93.6417,2.0,219.3467796,13.28041039,-99999.0,'11111222,11111222,99999999' 
TABS,ioos:station:wmo:42051:1,2002-05-04T01:30:00Z,29.6350,-93.6417,2.0,219.8383053,17.76383968,-99999.0,'11111222,11111222,99999999' 
TABS,ioos:station:wmo:42051:1,2002-05-04T02:00:00Z,29.6350,-93.6417,2.0,228.1457942,15.33196987,-99999.0,'11111222,11111222,99999999' 
TABS,ioos:station:wmo:42051:1,2002-05-04T02:30:00Z,29.6350,-93.6417,2.0,238.0407566,16.98435162,-99999.0,'11111222,11111222,99999999' 
TABS,ioos:station:wmo:42051:1,2002-05-04T03:00:00Z,29.6350,-93.6417,2.0,251.253695,16.89629841,-99999.0,'11111222,11111222,99999999' 
TABS,ioos:station:wmo:42051:1,2002-05-04T03:30:00Z,29.6350,-93.6417,2.0,263.7092442,13.96407176,-99999.0,'11111222,11111222,99999999' 
TABS,ioos:station:wmo:42051:1,2002-05-04T04:00:00Z,29.6350,-93.6417,2.0,295.0376367,13.58670674,-99999.0,'11111222,11111222,99999999' 
TABS,ioos:station:wmo:42051:1,2002-05-04T04:30:00Z,29.6350,-93.6417,2.0,302.7661595,12.37974555,-99999.0,'11111222,11111222,99999999' 
TABS,ioos:station:wmo:42051:1,2002-05-04T05:00:00Z,29.6350,-93.6417,2.0,320.7523932,12.62887564,-99999.0,'11111222,11111222,99999999' 
TABS,ioos:station:wmo:42051:1,2002-05-04T05:30:00Z,29.6350,-93.6417,2.0,339.6286464,12.72594987,-99999.0,'11111222,11111222,99999999' 
TABS,ioos:station:wmo:42051:1,2002-05-04T06:00:00Z,29.6350,-93.6417,2.0,345.992148,9.873626487,-99999.0,'11133222,11111222,99999999' 
TABS,ioos:station:wmo:42051:1,2002-05-04T06:30:00Z,29.6350,-93.6417,2.0,350.3446286,11.20878673,-99999.0,'11111222,11111222,99999999' 
TABS,ioos:station:wmo:42051:1,2002-05-04T07:00:00Z,29.6350,-93.6417,2.0,346.4735153,7.909399472,-99999.0,'11133222,11111222,99999999' 
TABS,ioos:station:wmo:42051:1,2002-05-04T07:30:00Z,29.6350,-93.6417,2.0,322.3650447,8.384748058,-99999.0,'11133222,11111222,99999999' 
TABS,ioos:station:wmo:42051:1,2002-05-04T08:00:00Z,29.6350,-93.6417,2.0,342.629834,8.340365699,-99999.0,'11133222,11111222,99999999' 
TABS,ioos:station:wmo:42051:1,2002-05-04T08:30:00Z,29.6350,-93.6417,2.0,339.4535161,7.208564351,-99999.0,'11133222,11111222,99999999' 
TABS,ioos:station:wmo:42051:1,2002-05-04T09:00:00Z,29.6350,-93.6417,2.0,328.9038466,8.88708051,-99999.0,'11133222,11111222,99999999' 
TABS,ioos:station:wmo:42051:1,2002-05-04T09:30:00Z,29.6350,-93.6417,2.0,333.9154445,6.936526508,-99999.0,'11133222,11111222,99999999' 
TABS,ioos:station:wmo:42051:1,2002-05-04T10:00:00Z,29.6350,-93.6417,2.0,332.9384508,7.737086015,-99999.0,'11133222,11111222,99999999' 
TABS,ioos:station:wmo:42051:1,2002-05-04T10:30:00Z,29.6350,-93.6417,2.0,312.7706688,6.906591055,-99999.0,'11133222,11111222,99999999' 
TABS,ioos:station:wmo:42051:1,2002-05-04T11:00:00Z,29.6350,-93.6417,2.0,312.2177119,6.845794329,-99999.0,'11133222,11111222,99999999' 
TABS,ioos:station:wmo:42051:1,2002-05-04T11:30:00Z,29.6350,-93.6417,2.0,309.1108538,8.338375141,-99999.0,'11133222,11111222,99999999' 
TABS,ioos:station:wmo:42051:1,2002-05-04T12:00:00Z,29.6350,-93.6417,2.0,297.415283,10.25126334,-99999.0,'11111222,11111222,99999999' 
TABS,ioos:station:wmo:42051:1,2002-05-04T12:30:00Z,29.6350,-93.6417,2.0,291.8757774,10.06469572,-99999.0,'11111222,11111222,99999999' 
TABS,ioos:station:wmo:42051:1,2002-05-04T13:00:00Z,29.6350,-93.6417,2.0,315.7137601,13.06127482,-99999.0,'11111222,11111222,99999999' 
TABS,ioos:station:wmo:42051:1,2002-05-04T13:30:00Z,29.6350,-93.6417,2.0,296.6071402,12.28048859,-99999.0,'11111222,11111222,99999999' 
TABS,ioos:station:wmo:42051:1,2002-05-04T14:00:00Z,29.6350,-93.6417,2.0,293.0819646,12.21808905,-99999.0,'11111222,11111222,99999999' 
TABS,ioos:station:wmo:42051:1,2002-05-04T14:30:00Z,29.6350,-93.6417,2.0,286.7883018,14.85302999,-99999.0,'11111222,11111222,99999999' 
TABS,ioos:station:wmo:42051:1,2002-05-04T15:00:00Z,29.6350,-93.6417,2.0,277.2551072,13.69967153,-99999.0,'11111222,11111222,99999999' 
TABS,ioos:station:wmo:42051:1,2002-05-04T15:30:00Z,29.6350,-93.6417,2.0,292.4972325,13.61618522,-99999.0,'11111222,11111222,99999999' 
TABS,ioos:station:wmo:42051:1,2002-05-04T16:00:00Z,29.6350,-93.6417,2.0,283.5985721,15.22683158,-99999.0,'11111222,11111222,99999999' 